AUA9721 LOWW-LIPB

Flight info

Callsign AUA9721
Flight time 0h 51m
Altitude 34000
Route OSPEN DCT ABRUK DCT SETAL DCT DETSA DCT ALESE
Aircraft B736/M-SDE2E3FGHIRWXY/LB1

Departure

Time 2026-04-16 04:58
Airport Vienna International Airport (LOWW)

Arrival

Time 2026-04-16 05:50
Airport Bolzano Airport (LIPB)
Time Latitude Longitude Altitude Speed Heading
2026-04-16 04:40 48.11462 16.57012 613 ft 0 kts 206°
2026-04-16 04:40 48.11464 16.57013 614 ft 0 kts 206°
2026-04-16 04:54 48.11452 16.57005 618 ft 5 kts 206°
2026-04-16 04:55 48.11416 16.56986 614 ft 6 kts 179°
2026-04-16 04:55 48.11384 16.57022 613 ft 7 kts 126°
2026-04-16 04:55 48.11357 16.57104 617 ft 10 kts 115°
2026-04-16 04:55 48.11326 16.57198 617 ft 10 kts 117°
2026-04-16 04:56 48.11287 16.57280 612 ft 10 kts 152°
2026-04-16 04:56 48.11221 16.57264 614 ft 10 kts 206°
2026-04-16 04:56 48.11155 16.57216 609 ft 11 kts 206°
2026-04-16 04:56 48.11090 16.57170 609 ft 10 kts 205°
2026-04-16 04:57 48.11065 16.57084 609 ft 10 kts 279°
2026-04-16 04:57 48.11093 16.56984 613 ft 12 kts 295°
2026-04-16 04:57 48.11204 16.56637 615 ft 73 kts 296°
2026-04-16 04:57 48.11530 16.55639 612 ft 136 kts 296°
2026-04-16 04:58 48.11992 16.54273 1044 ft 144 kts 297°
2026-04-16 04:58 48.12404 16.52934 1741 ft 144 kts 287°
2026-04-16 04:58 48.12243 16.51424 2267 ft 158 kts 231°
2026-04-16 04:58 48.11287 16.50470 2723 ft 180 kts 210°
2026-04-16 04:59 48.10136 16.49467 3187 ft 202 kts 212°
2026-04-16 04:59 48.08909 16.48328 3912 ft 207 kts 213°
2026-04-16 04:59 48.07682 16.47178 4706 ft 214 kts 214°
2026-04-16 04:59 48.06476 16.45764 5249 ft 230 kts 224°
2026-04-16 05:00 48.05248 16.44108 5910 ft 243 kts 225°
2026-04-16 05:00 48.03972 16.42377 6738 ft 250 kts 225°
2026-04-16 05:00 48.02657 16.40636 7439 ft 264 kts 224°
2026-04-16 05:00 48.01236 16.38772 8183 ft 275 kts 224°
2026-04-16 05:01 47.99778 16.36868 9157 ft 279 kts 223°
2026-04-16 05:01 47.98325 16.34975 10210 ft 282 kts 223°
2026-04-16 05:01 47.96808 16.32989 10885 ft 299 kts 225°
2026-04-16 05:01 47.95571 16.30372 11291 ft 317 kts 249°
2026-04-16 05:02 47.94803 16.27286 12113 ft 325 kts 251°
2026-04-16 05:02 47.94034 16.24070 13085 ft 329 kts 251°
2026-04-16 05:02 47.93265 16.20854 14043 ft 334 kts 251°
2026-04-16 05:02 47.92465 16.17541 14877 ft 341 kts 251°
2026-04-16 05:03 47.91654 16.14213 15754 ft 346 kts 251°
2026-04-16 05:03 47.90819 16.10804 16701 ft 350 kts 251°
2026-04-16 05:03 47.89984 16.07410 17622 ft 355 kts 251°
2026-04-16 05:04 47.88251 16.00402 19299 ft 364 kts 251°
2026-04-16 05:04 47.87203 15.96917 20074 ft 372 kts 238°
2026-04-16 05:04 47.85465 15.94080 20851 ft 379 kts 221°
2026-04-16 05:04 47.83364 15.91642 21677 ft 383 kts 219°
2026-04-16 05:05 47.81236 15.89282 22419 ft 389 kts 218°
2026-04-16 05:05 47.79038 15.86865 23199 ft 394 kts 218°
2026-04-16 05:05 47.76816 15.84411 23933 ft 399 kts 218°
2026-04-16 05:05 47.74610 15.81954 24548 ft 403 kts 219°
2026-04-16 05:06 47.72347 15.79420 25207 ft 407 kts 219°
2026-04-16 05:06 47.70073 15.76865 25840 ft 411 kts 219°
2026-04-16 05:06 47.67804 15.74314 26446 ft 416 kts 219°
2026-04-16 05:06 47.65479 15.71700 27062 ft 420 kts 219°
2026-04-16 05:07 47.63130 15.69061 27667 ft 424 kts 219°
2026-04-16 05:07 47.60790 15.66436 28284 ft 427 kts 219°
2026-04-16 05:07 47.58402 15.63761 28856 ft 431 kts 219°
2026-04-16 05:07 47.55986 15.61056 29361 ft 437 kts 219°
2026-04-16 05:08 47.53545 15.58328 29908 ft 440 kts 219°
2026-04-16 05:08 47.51125 15.55625 30596 ft 439 kts 220°
2026-04-16 05:08 47.48979 15.52450 31279 ft 431 kts 235°
2026-04-16 05:08 47.47323 15.48826 32005 ft 426 kts 242°
2026-04-16 05:09 47.45918 15.44981 32606 ft 424 kts 244°
2026-04-16 05:09 47.44568 15.41078 33147 ft 424 kts 245°
2026-04-16 05:09 47.43250 15.37199 33715 ft 424 kts 245°
2026-04-16 05:09 47.41942 15.33351 34217 ft 425 kts 245°
2026-04-16 05:10 47.40599 15.29421 34201 ft 429 kts 245°
2026-04-16 05:10 47.37889 15.21587 34206 ft 423 kts 245°
2026-04-16 05:11 47.35190 15.13865 34221 ft 425 kts 244°
2026-04-16 05:11 47.32488 15.06171 34215 ft 426 kts 244°
2026-04-16 05:12 47.29761 14.98431 34212 ft 426 kts 244°
2026-04-16 05:12 47.27027 14.90694 34209 ft 424 kts 244°
2026-04-16 05:13 47.24761 14.84301 34196 ft 423 kts 244°
2026-04-16 05:13 47.21593 14.75383 34215 ft 422 kts 244°
2026-04-16 05:14 47.18871 14.67744 34219 ft 423 kts 244°
2026-04-16 05:14 47.16592 14.61365 34219 ft 424 kts 244°
2026-04-16 05:15 47.13833 14.53665 34216 ft 424 kts 244°
2026-04-16 05:15 47.11083 14.46015 34210 ft 423 kts 244°
2026-04-16 05:16 47.08334 14.38387 34214 ft 422 kts 244°
2026-04-16 05:16 47.05591 14.30797 34226 ft 422 kts 244°
2026-04-16 05:17 47.02841 14.23208 34214 ft 423 kts 244°
2026-04-16 05:17 47.00079 14.15610 34218 ft 423 kts 244°
2026-04-16 05:18 46.97306 14.08002 34223 ft 423 kts 244°
2026-04-16 05:18 46.94536 14.00423 34217 ft 423 kts 243°
2026-04-16 05:19 46.91753 13.92833 34212 ft 422 kts 243°
2026-04-16 05:19 46.88984 13.85301 34213 ft 423 kts 243°
2026-04-16 05:20 46.86194 13.77734 34210 ft 423 kts 243°
2026-04-16 05:20 46.83398 13.70171 34206 ft 423 kts 243°
2026-04-16 05:21 46.80596 13.62613 34204 ft 423 kts 243°
2026-04-16 05:21 46.77793 13.55073 34202 ft 423 kts 243°
2026-04-16 05:22 46.74995 13.47569 34198 ft 423 kts 243°
2026-04-16 05:22 46.72180 13.40041 34194 ft 423 kts 243°
2026-04-16 05:23 46.69366 13.32536 34198 ft 423 kts 243°
2026-04-16 05:23 46.66544 13.25028 34191 ft 423 kts 243°
2026-04-16 05:24 46.63716 13.17529 34189 ft 422 kts 243°
2026-04-16 05:24 46.60875 13.10014 34178 ft 423 kts 243°
2026-04-16 05:25 46.58034 13.02519 34185 ft 423 kts 242°
2026-04-16 05:25 46.55189 12.95037 34178 ft 423 kts 242°
2026-04-16 05:26 46.52358 12.87610 34177 ft 421 kts 242°
2026-04-16 05:26 46.49516 12.80175 34180 ft 421 kts 242°
2026-04-16 05:26 46.48098 12.76474 33695 ft 424 kts 242°
2026-04-16 05:27 46.46658 12.72718 33056 ft 422 kts 242°
2026-04-16 05:27 46.45226 12.68991 32357 ft 421 kts 242°
2026-04-16 05:27 46.43815 12.65323 31772 ft 419 kts 242°
2026-04-16 05:27 46.42403 12.61660 31239 ft 415 kts 242°
2026-04-16 05:28 46.40986 12.57986 30679 ft 413 kts 242°
2026-04-16 05:28 46.39605 12.54410 30172 ft 409 kts 242°
2026-04-16 05:28 46.38207 12.50796 29582 ft 405 kts 242°
2026-04-16 05:28 46.36855 12.47303 29045 ft 401 kts 242°
2026-04-16 05:29 46.35501 12.43811 28510 ft 396 kts 242°
2026-04-16 05:29 46.34150 12.40331 27982 ft 392 kts 242°
2026-04-16 05:29 46.32827 12.36927 27458 ft 389 kts 242°
2026-04-16 05:29 46.31508 12.33537 26947 ft 386 kts 242°
2026-04-16 05:30 46.30187 12.30148 26419 ft 383 kts 242°
2026-04-16 05:30 46.28889 12.26819 25926 ft 380 kts 242°
2026-04-16 05:30 46.27584 12.23478 25435 ft 378 kts 242°
2026-04-16 05:30 46.26307 12.20212 24941 ft 376 kts 242°
2026-04-16 05:31 46.25018 12.16919 24451 ft 375 kts 242°
2026-04-16 05:31 46.23742 12.13663 23963 ft 374 kts 242°
2026-04-16 05:31 46.22457 12.10389 23394 ft 373 kts 242°
2026-04-16 05:31 46.21173 12.07121 22860 ft 371 kts 242°
2026-04-16 05:32 46.19919 12.03934 22354 ft 368 kts 242°
2026-04-16 05:32 46.18651 12.00715 21884 ft 364 kts 242°
2026-04-16 05:32 46.17409 11.97567 21396 ft 361 kts 242°
2026-04-16 05:32 46.16159 11.94402 20919 ft 359 kts 242°
2026-04-16 05:33 46.14944 11.91325 20446 ft 356 kts 242°
2026-04-16 05:33 46.13716 11.88221 19992 ft 353 kts 242°
2026-04-16 05:33 46.12513 11.85185 19544 ft 351 kts 242°
2026-04-16 05:33 46.11297 11.82116 19071 ft 349 kts 242°
2026-04-16 05:34 46.10104 11.79110 18597 ft 348 kts 242°
2026-04-16 05:34 46.08894 11.76063 18084 ft 347 kts 242°
2026-04-16 05:34 46.07701 11.73065 17576 ft 344 kts 242°
2026-04-16 05:34 46.06526 11.70113 17198 ft 338 kts 242°
2026-04-16 05:35 46.05381 11.67244 17082 ft 325 kts 242°
2026-04-16 05:35 46.04267 11.64453 16930 ft 314 kts 242°
2026-04-16 05:35 46.03203 11.61785 16810 ft 304 kts 242°
2026-04-16 05:35 46.02164 11.59189 16667 ft 294 kts 242°
2026-04-16 05:36 46.01157 11.56674 16563 ft 284 kts 242°
2026-04-16 05:36 46.00193 11.54265 16451 ft 275 kts 243°
2026-04-16 05:36 45.99626 11.51714 16230 ft 266 kts 269°
2026-04-16 05:36 45.99722 11.49075 16016 ft 263 kts 278°
2026-04-16 05:37 45.99946 11.46482 15758 ft 264 kts 279°
2026-04-16 05:37 46.00188 11.43842 15463 ft 266 kts 279°
2026-04-16 05:37 46.00426 11.41215 15170 ft 266 kts 278°
2026-04-16 05:37 46.00659 11.38571 14871 ft 265 kts 279°
2026-04-16 05:38 46.00885 11.35947 14588 ft 264 kts 278°
2026-04-16 05:38 46.01106 11.33351 14304 ft 263 kts 278°
2026-04-16 05:38 46.01326 11.30733 14052 ft 258 kts 278°
2026-04-16 05:38 46.01535 11.28224 13746 ft 251 kts 278°
2026-04-16 05:39 46.01738 11.25777 13447 ft 243 kts 278°
2026-04-16 05:39 46.01934 11.23392 13195 ft 235 kts 278°
2026-04-16 05:39 46.02124 11.21078 12953 ft 229 kts 278°
2026-04-16 05:39 46.02309 11.18822 12714 ft 228 kts 279°
2026-04-16 05:40 46.02510 11.16568 12473 ft 226 kts 284°
2026-04-16 05:40 46.03222 11.14642 12234 ft 219 kts 319°
2026-04-16 05:40 46.04564 11.13624 11876 ft 221 kts 350°
2026-04-16 05:40 46.06089 11.13683 11509 ft 225 kts 14°
2026-04-16 05:41 46.07600 11.14341 11097 ft 225 kts 17°
2026-04-16 05:41 46.09088 11.15024 10684 ft 225 kts 18°
2026-04-16 05:41 46.10589 11.15710 10164 ft 229 kts 18°
2026-04-16 05:41 46.12118 11.16365 9718 ft 225 kts 15°
2026-04-16 05:42 46.13597 11.16944 9359 ft 219 kts 15°
2026-04-16 05:42 46.15045 11.17506 9026 ft 213 kts 15°
2026-04-16 05:42 46.16469 11.18060 8692 ft 208 kts 15°
2026-04-16 05:42 46.17836 11.18595 8389 ft 202 kts 15°
2026-04-16 05:43 46.19181 11.19122 8088 ft 197 kts 15°
2026-04-16 05:43 46.20477 11.19631 7805 ft 194 kts 15°
2026-04-16 05:43 46.21780 11.20144 7525 ft 192 kts 15°
2026-04-16 05:43 46.23057 11.20646 7236 ft 188 kts 15°
2026-04-16 05:44 46.24283 11.21156 6956 ft 182 kts 19°
2026-04-16 05:44 46.25457 11.21796 6661 ft 176 kts 21°
2026-04-16 05:44 46.26568 11.22423 6367 ft 170 kts 20°
2026-04-16 05:44 46.27669 11.23041 6089 ft 168 kts 20°
2026-04-16 05:45 46.28753 11.23648 5826 ft 169 kts 20°
2026-04-16 05:45 46.29847 11.24261 5504 ft 167 kts 20°
2026-04-16 05:45 46.30927 11.24866 5181 ft 165 kts 20°
2026-04-16 05:45 46.31983 11.25455 4803 ft 162 kts 20°
2026-04-16 05:46 46.33006 11.26026 4490 ft 154 kts 20°
2026-04-16 05:46 46.33980 11.26570 4212 ft 144 kts 21°
2026-04-16 05:46 46.34892 11.27079 3913 ft 136 kts 21°
2026-04-16 05:46 46.35748 11.27557 3672 ft 127 kts 21°
2026-04-16 05:47 46.36557 11.28009 3417 ft 127 kts 21°
2026-04-16 05:47 46.37393 11.28475 3165 ft 128 kts 21°
2026-04-16 05:47 46.38232 11.29009 2960 ft 134 kts 29°
2026-04-16 05:47 46.39029 11.29677 2759 ft 131 kts 30°
2026-04-16 05:48 46.39811 11.30338 2533 ft 129 kts 30°
2026-04-16 05:48 46.40598 11.30936 2273 ft 126 kts 24°
2026-04-16 05:48 46.41414 11.31377 1959 ft 127 kts 15°
2026-04-16 05:48 46.42286 11.31638 1677 ft 125 kts 12°
2026-04-16 05:49 46.43127 11.31868 1432 ft 123 kts 11°
2026-04-16 05:49 46.43979 11.32102 1182 ft 124 kts 12°
2026-04-16 05:49 46.44820 11.32316 924 ft 122 kts 10°
2026-04-16 05:49 46.45601 11.32529 788 ft 102 kts 10°
2026-04-16 05:50 46.46006 11.32635 787 ft 43 kts 10°
2026-04-16 05:50 46.46277 11.32705 786 ft 35 kts 10°
2026-04-16 05:50 46.46443 11.32748 785 ft 20 kts 10°
2026-04-16 05:50 46.46581 11.32785 786 ft 20 kts 11°
2026-04-16 05:51 46.46658 11.32806 786 ft 5 kts 15°
2026-04-16 05:51 46.46680 11.32835 786 ft 4 kts 70°
2026-04-16 05:51 46.46679 11.32879 786 ft 4 kts 99°
2026-04-16 05:51 46.46669 11.32918 786 ft 5 kts 140°
2026-04-16 05:52 46.46637 11.32923 786 ft 6 kts 192°
2026-04-16 05:52 46.46588 11.32911 786 ft 8 kts 190°
2026-04-16 05:52 46.46533 11.32897 786 ft 8 kts 190°
2026-04-16 05:52 46.46481 11.32883 786 ft 8 kts 190°
2026-04-16 05:53 46.46430 11.32869 786 ft 7 kts 190°
2026-04-16 05:53 46.46381 11.32856 786 ft 7 kts 190°
2026-04-16 05:53 46.46333 11.32844 786 ft 7 kts 190°
2026-04-16 05:53 46.46286 11.32832 786 ft 7 kts 190°
2026-04-16 05:54 46.46253 11.32837 786 ft 5 kts 140°
2026-04-16 05:54 46.46246 11.32859 786 ft 2 kts 107°
2026-04-16 05:54 46.46244 11.32875 786 ft 2 kts 99°
2026-04-16 05:54 46.46244 11.32883 786 ft 0 kts 99°